カタログに戻る

STARLINK-35264

運用中通信VLEO
NORAD 65900·PAYLOAD·🇺🇸 United States

打ち上げ Oct 7, 2025 から Cape Canaveral Space Force Station

Loading…

次のパス (今後24時間)

TLE

最新Source: CelesTrak SupGP

元期: Sep 14, 2026, 21:36 UTC

1 65900C 25224U   26257.90048611  .00019621  00000+0  57955-3 0  2575
2 65900  53.1585 207.9135 0001336 102.0538  42.9136 15.34389193    10

AllMySatでSTARLINK-35264をリアルタイム追跡

Download on the App Store